TimeCDT,TemperatureF,Dew PointF,Humidity,Sea Level PressureIn,VisibilityMPH,Wind Direction,Wind SpeedMPH,Gust SpeedMPH,PrecipitationIn,Events,Conditions,WindDirDegrees,DateUTC
12:53 AM,73.9,66.0,76,30.01,10.0,WSW,5.8,-,N/A,,Clear,240,2013-08-29 05:53:00
1:53 AM,73.9,66.0,76,30.00,10.0,SW,4.6,-,N/A,,Clear,230,2013-08-29 06:53:00
2:53 AM,73.9,66.0,76,30.00,10.0,Calm,Calm,-,N/A,,Clear,0,2013-08-29 07:53:00
3:53 AM,71.1,66.0,84,30.01,10.0,SW,6.9,-,N/A,,Clear,220,2013-08-29 08:53:00
4:53 AM,72.0,66.9,84,30.00,10.0,SW,6.9,-,N/A,,Clear,230,2013-08-29 09:53:00
5:53 AM,71.1,66.0,84,30.01,10.0,South,3.5,-,N/A,,Clear,170,2013-08-29 10:53:00
6:53 AM,69.1,64.9,87,30.03,10.0,East,3.5,-,N/A,,Clear,80,2013-08-29 11:53:00
7:53 AM,73.0,66.9,81,30.03,10.0,South,4.6,-,N/A,,Clear,180,2013-08-29 12:53:00
8:53 AM,80.1,70.0,71,30.03,10.0,Calm,Calm,-,N/A,,Clear,0,2013-08-29 13:53:00
9:53 AM,84.0,71.1,65,30.03,10.0,SSE,3.5,-,N/A,,Clear,160,2013-08-29 14:53:00
10:53 AM,84.9,70.0,61,30.04,10.0,Variable,3.5,-,N/A,,Clear,0,2013-08-29 15:53:00
11:53 AM,89.1,70.0,53,30.01,10.0,Variable,4.6,-,N/A,,Clear,0,2013-08-29 16:53:00
12:53 PM,91.0,70.0,50,30.00,10.0,SSW,8.1,-,N/A,,Partly Cloudy,200,2013-08-29 17:53:00
1:53 PM,93.9,70.0,46,29.98,10.0,SW,11.5,16.1,N/A,,Partly Cloudy,220,2013-08-29 18:53:00
2:53 PM,91.9,70.0,48,29.96,10.0,SW,6.9,-,N/A,,Mostly Cloudy,230,2013-08-29 19:53:00
3:53 PM,93.0,69.1,45,29.94,10.0,SW,10.4,-,N/A,,Partly Cloudy,220,2013-08-29 20:53:00
4:53 PM,95.0,66.9,40,29.94,10.0,SSW,12.7,-,N/A,,Partly Cloudy,210,2013-08-29 21:53:00
5:53 PM,93.0,68.0,44,29.92,10.0,SSW,6.9,-,N/A,,Clear,200,2013-08-29 22:53:00
6:53 PM,91.0,71.1,52,29.92,10.0,SSE,5.8,-,N/A,,Clear,160,2013-08-29 23:53:00
7:53 PM,87.1,71.1,59,29.93,10.0,SSE,5.8,-,N/A,,Clear,160,2013-08-30 00:53:00
8:53 PM,84.0,71.1,65,29.93,10.0,South,4.6,-,N/A,,Clear,170,2013-08-30 01:53:00
9:53 PM,82.0,71.1,69,29.93,10.0,South,5.8,-,N/A,,Clear,170,2013-08-30 02:53:00
10:53 PM,81.0,69.1,67,29.92,10.0,South,8.1,-,N/A,,Clear,190,2013-08-30 03:53:00
11:53 PM,79.0,69.1,72,29.92,10.0,South,6.9,-,N/A,,Clear,190,2013-08-30 04:53:00